Time,TemperatureF,DewpointF,PressureIn,WindDirection,WindDirectionDegrees,WindSpeedMPH,WindSpeedGustMPH,Humidity,HourlyPrecipIn,Conditions,Clouds,dailyrainin,SoftwareType,DateUTC
2013-10-16 00:00:00,61.6,26.4,29.89,NE,49,0.0,3.0,26,0.00,,,0.00,VWS V14.01,2013-10-16 04:00:00,
2013-10-16 00:04:00,61.8,25.6,29.89,NE,49,0.0,2.0,25,0.00,,,0.00,VWS V14.01,2013-10-16 04:04:00,
2013-10-16 00:05:00,61.7,26.5,29.89,NE,49,0.0,2.0,26,0.00,,,0.00,VWS V14.01,2013-10-16 04:05:00,
2013-10-16 00:09:00,60.8,25.7,29.89,NE,49,0.0,1.0,26,0.00,,,0.00,VWS V14.01,2013-10-16 04:09:00,
2013-10-16 00:10:00,60.7,25.6,29.89,NE,49,0.0,1.0,26,0.00,,,0.00,VWS V14.01,2013-10-16 04:10:00,
2013-10-16 00:14:00,59.9,25.9,29.90,NE,49,0.0,0.0,27,0.00,,,0.00,VWS V14.01,2013-10-16 04:14:00,
2013-10-16 00:15:00,59.8,25.8,29.90,NE,49,0.0,0.0,27,0.00,,,0.00,VWS V14.01,2013-10-16 04:15:00,
2013-10-16 00:19:00,58.9,25.9,29.89,NE,49,1.0,2.0,28,0.00,,,0.00,VWS V14.01,2013-10-16 04:19:00,
2013-10-16 00:20:00,59.0,26.0,29.90,NE,49,0.0,2.0,28,0.00,,,0.00,VWS V14.01,2013-10-16 04:20:00,
2013-10-16 00:24:00,59.6,26.5,29.90,NE,49,0.0,2.0,28,0.00,,,0.00,VWS V14.01,2013-10-16 04:24:00,
2013-10-16 00:25:00,59.5,26.4,29.90,NE,49,0.0,2.0,28,0.00,,,0.00,VWS V14.01,2013-10-16 04:25:00,
2013-10-16 00:29:00,59.4,26.3,29.90,NE,49,0.0,1.0,28,0.00,,,0.00,VWS V14.01,2013-10-16 04:29:00,
2013-10-16 00:30:00,59.4,26.3,29.90,NE,49,0.0,1.0,28,0.00,,,0.00,VWS V14.01,2013-10-16 04:30:00,
2013-10-16 00:34:00,59.1,26.0,29.90,NE,49,0.0,1.0,28,0.00,,,0.00,VWS V14.01,2013-10-16 04:34:00,
2013-10-16 00:35:00,59.1,26.0,29.90,NE,49,0.0,1.0,28,0.00,,,0.00,VWS V14.01,2013-10-16 04:35:00,
2013-10-16 00:39:00,59.0,26.0,29.90,NE,49,0.0,1.0,28,0.00,,,0.00,VWS V14.01,2013-10-16 04:39:00,
2013-10-16 00:40:00,59.0,26.0,29.90,NE,49,0.0,1.0,28,0.00,,,0.00,VWS V14.01,2013-10-16 04:40:00,
2013-10-16 00:44:00,58.3,25.4,29.90,NE,49,0.0,0.0,28,0.00,,,0.00,VWS V14.01,2013-10-16 04:44:00,
2013-10-16 00:45:00,58.3,25.4,29.90,NE,49,0.0,0.0,28,0.00,,,0.00,VWS V14.01,2013-10-16 04:45:00,
2013-10-16 00:49:00,58.0,25.1,29.90,NE,49,0.0,0.0,28,0.00,,,0.00,VWS V14.01,2013-10-16 04:49:00,
2013-10-16 00:50:00,58.0,25.1,29.90,NE,49,0.0,0.0,28,0.00,,,0.00,VWS V14.01,2013-10-16 04:50:00,
2013-10-16 00:54:00,57.4,25.4,29.90,NE,49,0.0,0.0,29,0.00,,,0.00,VWS V14.01,2013-10-16 04:54:00,
2013-10-16 00:55:00,57.3,25.3,29.90,NE,49,0.0,0.0,29,0.00,,,0.00,VWS V14.01,2013-10-16 04:55:00,
2013-10-16 00:59:00,56.2,25.2,29.90,NE,49,0.0,1.0,30,0.00,,,0.00,VWS V14.01,2013-10-16 04:59:00,
2013-10-16 01:00:00,56.1,25.1,29.90,NE,49,1.0,2.0,30,0.00,,,0.00,VWS V14.01,2013-10-16 05:00:00,
2013-10-16 01:04:00,55.8,24.9,29.90,NE,49,1.0,2.0,30,0.00,,,0.00,VWS V14.01,2013-10-16 05:04:00,
2013-10-16 01:05:00,55.8,24.9,29.90,NE,49,2.0,2.0,30,0.00,,,0.00,VWS V14.01,2013-10-16 05:05:00,
2013-10-16 01:09:00,55.9,24.9,29.90,NE,49,1.0,3.0,30,0.00,,,0.00,VWS V14.01,2013-10-16 05:09:00,
2013-10-16 01:10:00,56.0,25.0,29.90,NE,49,2.0,3.0,30,0.00,,,0.00,VWS V14.01,2013-10-16 05:10:00,
2013-10-16 01:14:00,57.1,26.0,29.90,NE,49,0.0,3.0,30,0.00,,,0.00,VWS V14.01,2013-10-16 05:14:00,
2013-10-16 01:15:00,57.1,25.2,29.90,NE,49,0.0,3.0,29,0.00,,,0.00,VWS V14.01,2013-10-16 05:15:00,
2013-10-16 01:19:00,57.8,25.8,29.90,NE,49,0.0,2.0,29,0.00,,,0.00,VWS V14.01,2013-10-16 05:19:00,
2013-10-16 01:20:00,57.8,25.8,29.90,NE,49,0.0,2.0,29,0.00,,,0.00,VWS V14.01,2013-10-16 05:20:00,
2013-10-16 01:24:00,57.8,24.9,29.90,NE,46,0.0,2.0,28,0.00,,,0.00,VWS V14.01,2013-10-16 05:24:00,
2013-10-16 01:25:00,57.7,25.7,29.90,NE,46,0.0,2.0,29,0.00,,,0.00,VWS V14.01,2013-10-16 05:25:00,
2013-10-16 01:29:00,57.1,25.2,29.90,NE,46,2.0,2.0,29,0.00,,,0.00,VWS V14.01,2013-10-16 05:29:00,
2013-10-16 01:30:00,57.0,25.1,29.90,NE,46,1.0,2.0,29,0.00,,,0.00,VWS V14.01,2013-10-16 05:30:00,
2013-10-16 01:34:00,56.3,25.3,29.90,NE,46,0.0,1.0,30,0.00,,,0.00,VWS V14.01,2013-10-16 05:34:00,
2013-10-16 01:35:00,56.2,25.2,29.90,NE,46,0.0,1.0,30,0.00,,,0.00,VWS V14.01,2013-10-16 05:35:00,
2013-10-16 01:39:00,55.8,24.9,29.90,NE,36,0.0,2.0,30,0.00,,,0.00,VWS V14.01,2013-10-16 05:39:00,
2013-10-16 01:40:00,55.7,24.8,29.90,NE,36,0.0,2.0,30,0.00,,,0.00,VWS V14.01,2013-10-16 05:40:00,
2013-10-16 01:44:00,55.7,24.8,29.90,NE,36,0.0,0.0,30,0.00,,,0.00,VWS V14.01,2013-10-16 05:44:00,
2013-10-16 01:45:00,55.7,24.8,29.90,NE,36,0.0,0.0,30,0.00,,,0.00,VWS V14.01,2013-10-16 05:45:00,
2013-10-16 01:49:00,55.0,24.9,29.90,NE,36,0.0,0.0,31,0.00,,,0.00,VWS V14.01,2013-10-16 05:49:00,
2013-10-16 01:50:00,55.0,24.9,29.90,NE,36,0.0,0.0,31,0.00,,,0.00,VWS V14.01,2013-10-16 05:50:00,
2013-10-16 01:54:00,54.9,24.9,29.90,NE,36,0.0,0.0,31,0.00,,,0.00,VWS V14.01,2013-10-16 05:54:00,
2013-10-16 01:55:00,54.8,24.8,29.90,NE,36,0.0,0.0,31,0.00,,,0.00,VWS V14.01,2013-10-16 05:55:00,
2013-10-16 01:59:00,54.2,24.2,29.90,NE,36,0.0,0.0,31,0.00,,,0.00,VWS V14.01,2013-10-16 05:59:00,
2013-10-16 02:00:00,54.2,24.2,29.90,NE,36,0.0,0.0,31,0.00,,,0.00,VWS V14.01,2013-10-16 06:00:00,
2013-10-16 02:04:00,53.4,24.3,29.90,NE,36,0.0,0.0,32,0.00,,,0.00,VWS V14.01,2013-10-16 06:04:00,
2013-10-16 02:05:00,53.3,24.2,29.90,NE,36,0.0,0.0,32,0.00,,,0.00,VWS V14.01,2013-10-16 06:05:00,
2013-10-16 02:09:00,52.9,23.9,29.90,NE,36,0.0,0.0,32,0.00,,,0.00,VWS V14.01,2013-10-16 06:09:00,
2013-10-16 02:10:00,52.9,23.9,29.90,NE,36,0.0,0.0,32,0.00,,,0.00,VWS V14.01,2013-10-16 06:10:00,
2013-10-16 02:14:00,52.8,23.8,29.90,NE,36,0.0,1.0,32,0.00,,,0.00,VWS V14.01,2013-10-16 06:14:00,
2013-10-16 02:15:00,52.8,23.8,29.90,NE,36,0.0,1.0,32,0.00,,,0.00,VWS V14.01,2013-10-16 06:15:00,
2013-10-16 02:19:00,53.4,24.3,29.90,NE,36,0.0,0.0,32,0.00,,,0.00,VWS V14.01,2013-10-16 06:19:00,
2013-10-16 02:20:00,53.4,24.3,29.90,NE,36,0.0,0.0,32,0.00,,,0.00,VWS V14.01,2013-10-16 06:20:00,
2013-10-16 02:24:00,53.4,23.5,29.91,NE,36,0.0,0.0,31,0.00,,,0.00,VWS V14.01,2013-10-16 06:24:00,
2013-10-16 02:25:00,53.4,23.5,29.91,NE,36,0.0,0.0,31,0.00,,,0.00,VWS V14.01,2013-10-16 06:25:00,
2013-10-16 02:29:00,53.3,23.5,29.90,NE,36,0.0,0.0,31,0.00,,,0.00,VWS V14.01,2013-10-16 06:29:00,
2013-10-16 02:30:00,53.3,23.5,29.91,NE,36,0.0,0.0,31,0.00,,,0.00,VWS V14.01,2013-10-16 06:30:00,
2013-10-16 02:34:00,53.5,23.6,29.91,NE,36,1.0,1.0,31,0.00,,,0.00,VWS V14.01,2013-10-16 06:34:00,
2013-10-16 02:35:00,53.4,23.5,29.91,NE,36,0.0,1.0,31,0.00,,,0.00,VWS V14.01,2013-10-16 06:35:00,
2013-10-16 02:39:00,53.3,23.5,29.91,NE,36,1.0,1.0,31,0.00,,,0.00,VWS V14.01,2013-10-16 06:39:00,
2013-10-16 02:40:00,53.3,23.5,29.91,NE,36,1.0,1.0,31,0.00,,,0.00,VWS V14.01,2013-10-16 06:40:00,
2013-10-16 02:44:00,53.6,23.7,29.91,NE,36,0.0,2.0,31,0.00,,,0.00,VWS V14.01,2013-10-16 06:44:00,
2013-10-16 02:45:00,53.6,23.7,29.91,NE,36,0.0,2.0,31,0.00,,,0.00,VWS V14.01,2013-10-16 06:45:00,
2013-10-16 02:49:00,52.6,22.9,29.91,ENE,57,3.0,4.0,31,0.00,,,0.00,VWS V14.01,2013-10-16 06:49:00,
2013-10-16 02:50:00,52.5,22.8,29.91,ENE,57,3.0,4.0,31,0.00,,,0.00,VWS V14.01,2013-10-16 06:50:00,
2013-10-16 02:54:00,51.5,22.6,29.91,ENE,63,2.0,4.0,32,0.00,,,0.00,VWS V14.01,2013-10-16 06:54:00,
2013-10-16 02:55:00,51.4,22.5,29.91,ENE,63,1.0,4.0,32,0.00,,,0.00,VWS V14.01,2013-10-16 06:55:00,
2013-10-16 02:59:00,51.0,22.9,29.91,ENE,58,1.0,4.0,33,0.00,,,0.00,VWS V14.01,2013-10-16 06:59:00,
2013-10-16 03:00:00,51.0,22.9,29.91,ENE,59,1.0,4.0,33,0.00,,,0.00,VWS V14.01,2013-10-16 07:00:00,
2013-10-16 03:04:00,51.2,23.1,29.91,ENE,58,0.0,2.0,33,0.00,,,0.00,VWS V14.01,2013-10-16 07:04:00,
2013-10-16 03:05:00,51.3,23.2,29.91,ENE,58,1.0,2.0,33,0.00,,,0.00,VWS V14.01,2013-10-16 07:05:00,
2013-10-16 03:09:00,51.6,23.5,29.91,ENE,58,0.0,2.0,33,0.00,,,0.00,VWS V14.01,2013-10-16 07:09:00,
2013-10-16 03:10:00,51.7,23.5,29.91,ENE,58,1.0,2.0,33,0.00,,,0.00,VWS V14.01,2013-10-16 07:10:00,
2013-10-16 03:14:00,51.8,22.9,29.92,NE,35,2.0,4.0,32,0.00,,,0.00,VWS V14.01,2013-10-16 07:14:00,
2013-10-16 03:15:00,51.8,22.9,29.92,NE,34,3.0,4.0,32,0.00,,,0.00,VWS V14.01,2013-10-16 07:15:00,
2013-10-16 03:19:00,52.6,23.6,29.91,NE,39,1.0,5.0,32,0.00,,,0.00,VWS V14.01,2013-10-16 07:19:00,
2013-10-16 03:20:00,52.6,23.6,29.92,NE,38,2.0,5.0,32,0.00,,,0.00,VWS V14.01,2013-10-16 07:20:00,
2013-10-16 03:24:00,52.7,23.7,29.92,NE,34,0.0,2.0,32,0.00,,,0.00,VWS V14.01,2013-10-16 07:24:00,
2013-10-16 03:25:00,52.7,23.7,29.92,NE,34,0.0,2.0,32,0.00,,,0.00,VWS V14.01,2013-10-16 07:25:00,
2013-10-16 03:29:00,52.1,23.2,29.92,NNE,32,0.0,3.0,32,0.00,,,0.00,VWS V14.01,2013-10-16 07:29:00,
2013-10-16 03:30:00,52.1,23.2,29.92,NNE,32,0.0,3.0,32,0.00,,,0.00,VWS V14.01,2013-10-16 07:30:00,
2013-10-16 03:34:00,51.8,23.6,29.92,North,360,1.0,3.0,33,0.00,,,0.00,VWS V14.01,2013-10-16 07:34:00,
2013-10-16 03:35:00,51.8,23.6,29.92,North,360,0.0,3.0,33,0.00,,,0.00,VWS V14.01,2013-10-16 07:35:00,
2013-10-16 03:39:00,51.9,23.7,29.92,North,5,2.0,2.0,33,0.00,,,0.00,VWS V14.01,2013-10-16 07:39:00,
2013-10-16 03:40:00,51.8,23.6,29.92,North,5,1.0,3.0,33,0.00,,,0.00,VWS V14.01,2013-10-16 07:40:00,
2013-10-16 03:44:00,51.6,23.5,29.92,North,5,0.0,2.0,33,0.00,,,0.00,VWS V14.01,2013-10-16 07:44:00,
2013-10-16 03:45:00,51.6,23.5,29.92,North,5,1.0,2.0,33,0.00,,,0.00,VWS V14.01,2013-10-16 07:45:00,
2013-10-16 03:49:00,51.3,23.2,29.92,North,5,0.0,2.0,33,0.00,,,0.00,VWS V14.01,2013-10-16 07:49:00,
2013-10-16 03:50:00,51.3,23.2,29.92,North,5,0.0,2.0,33,0.00,,,0.00,VWS V14.01,2013-10-16 07:50:00,
2013-10-16 03:54:00,50.6,23.3,29.92,North,5,2.0,3.0,34,0.00,,,0.00,VWS V14.01,2013-10-16 07:54:00,
2013-10-16 03:55:00,50.5,23.2,29.92,North,9,3.0,3.0,34,0.00,,,0.00,VWS V14.01,2013-10-16 07:55:00,
2013-10-16 03:59:00,50.3,23.0,29.92,North,5,2.0,3.0,34,0.00,,,0.00,VWS V14.01,2013-10-16 07:59:00,
2013-10-16 04:00:00,50.3,23.0,29.92,North,5,2.0,3.0,34,0.00,,,0.00,VWS V14.01,2013-10-16 08:00:00,
2013-10-16 04:04:00,51.2,23.1,29.92,NW,325,1.0,4.0,33,0.00,,,0.00,VWS V14.01,2013-10-16 08:04:00,
2013-10-16 04:05:00,51.2,23.1,29.92,NW,325,1.0,4.0,33,0.00,,,0.00,VWS V14.01,2013-10-16 08:05:00,
2013-10-16 04:09:00,51.5,24.1,29.92,NW,326,0.0,2.0,34,0.00,,,0.00,VWS V14.01,2013-10-16 08:09:00,
2013-10-16 04:10:00,51.6,24.2,29.92,NW,326,2.0,2.0,34,0.00,,,0.00,VWS V14.01,2013-10-16 08:10:00,
2013-10-16 04:14:00,51.0,23.6,29.92,NW,323,0.0,4.0,34,0.00,,,0.00,VWS V14.01,2013-10-16 08:14:00,
2013-10-16 04:15:00,51.0,23.6,29.92,NW,323,0.0,4.0,34,0.00,,,0.00,VWS V14.01,2013-10-16 08:15:00,
2013-10-16 04:19:00,51.1,23.7,29.92,NW,323,0.0,2.0,34,0.00,,,0.00,VWS V14.01,2013-10-16 08:19:00,
2013-10-16 04:20:00,51.1,23.7,29.92,NW,323,0.0,2.0,34,0.00,,,0.00,VWS V14.01,2013-10-16 08:20:00,
2013-10-16 04:24:00,50.9,23.5,29.92,NW,323,0.0,1.0,34,0.00,,,0.00,VWS V14.01,2013-10-16 08:24:00,
2013-10-16 04:25:00,50.9,23.5,29.92,NW,323,0.0,1.0,34,0.00,,,0.00,VWS V14.01,2013-10-16 08:25:00,
2013-10-16 04:29:00,50.7,24.1,29.92,NW,323,0.0,0.0,35,0.00,,,0.00,VWS V14.01,2013-10-16 08:29:00,
2013-10-16 04:30:00,50.7,24.1,29.92,NW,323,0.0,0.0,35,0.00,,,0.00,VWS V14.01,2013-10-16 08:30:00,
2013-10-16 04:34:00,50.7,24.1,29.92,NW,323,0.0,1.0,35,0.00,,,0.00,VWS V14.01,2013-10-16 08:34:00,
2013-10-16 04:35:00,50.7,24.1,29.92,NW,323,0.0,1.0,35,0.00,,,0.00,VWS V14.01,2013-10-16 08:35:00,
2013-10-16 04:40:00,50.5,23.2,29.92,NW,323,0.0,2.0,34,0.00,,,0.00,VWS V14.01,2013-10-16 08:40:00,
2013-10-16 04:45:00,49.8,23.3,29.92,NW,323,0.0,2.0,35,0.00,,,0.00,VWS V14.01,2013-10-16 08:45:00,
2013-10-16 04:50:00,49.7,23.9,29.92,NW,323,0.0,0.0,36,0.00,,,0.00,VWS V14.01,2013-10-16 08:50:00,
2013-10-16 04:55:00,49.5,23.7,29.92,NW,323,0.0,0.0,36,0.00,,,0.00,VWS V14.01,2013-10-16 08:55:00,
2013-10-16 05:00:00,50.1,24.2,29.92,NW,323,0.0,0.0,36,0.00,,,0.00,VWS V14.01,2013-10-16 09:00:00,
2013-10-16 05:05:00,50.2,23.6,29.92,NW,323,0.0,0.0,35,0.00,,,0.00,VWS V14.01,2013-10-16 09:05:00,
2013-10-16 05:10:00,49.9,24.0,29.92,NW,323,0.0,0.0,36,0.00,,,0.00,VWS V14.01,2013-10-16 09:10:00,
2013-10-16 05:15:00,49.0,23.2,29.92,NW,323,0.0,0.0,36,0.00,,,0.00,VWS V14.01,2013-10-16 09:15:00,
2013-10-16 05:20:00,48.1,23.1,29.92,NW,323,0.0,1.0,37,0.00,,,0.00,VWS V14.01,2013-10-16 09:20:00,
2013-10-16 05:25:00,48.0,23.0,29.92,NW,323,0.0,2.0,37,0.00,,,0.00,VWS V14.01,2013-10-16 09:25:00,
2013-10-16 05:30:00,47.8,22.8,29.92,NW,323,1.0,1.0,37,0.00,,,0.00,VWS V14.01,2013-10-16 09:30:00,
2013-10-16 05:35:00,47.8,23.4,29.92,NW,323,0.0,1.0,38,0.00,,,0.00,VWS V14.01,2013-10-16 09:35:00,
2013-10-16 05:40:00,47.9,23.5,29.92,NW,323,0.0,0.0,38,0.00,,,0.00,VWS V14.01,2013-10-16 09:40:00,
2013-10-16 05:45:00,47.7,23.4,29.92,NW,323,0.0,0.0,38,0.00,,,0.00,VWS V14.01,2013-10-16 09:45:00,
2013-10-16 05:50:00,47.4,23.1,29.92,NW,323,0.0,1.0,38,0.00,,,0.00,VWS V14.01,2013-10-16 09:50:00,
2013-10-16 05:55:00,47.2,22.9,29.92,NW,323,0.0,0.0,38,0.00,,,0.00,VWS V14.01,2013-10-16 09:55:00,
2013-10-16 06:00:00,47.6,23.9,29.92,NW,323,0.0,0.0,39,0.00,,,0.00,VWS V14.01,2013-10-16 10:00:00,
2013-10-16 06:05:00,47.7,24.0,29.92,NW,323,0.0,0.0,39,0.00,,,0.00,VWS V14.01,2013-10-16 10:05:00,
2013-10-16 06:10:00,47.7,24.0,29.92,NW,323,0.0,0.0,39,0.00,,,0.00,VWS V14.01,2013-10-16 10:10:00,
2013-10-16 06:15:00,47.8,24.1,29.92,NW,323,0.0,0.0,39,0.00,,,0.00,VWS V14.01,2013-10-16 10:15:00,
2013-10-16 06:20:00,47.8,24.1,29.92,NW,323,0.0,0.0,39,0.00,,,0.00,VWS V14.01,2013-10-16 10:20:00,
2013-10-16 06:25:00,47.4,23.7,29.92,NW,323,0.0,0.0,39,0.00,,,0.00,VWS V14.01,2013-10-16 10:25:00,
2013-10-16 06:30:00,47.6,23.9,29.92,NW,323,0.0,0.0,39,0.00,,,0.00,VWS V14.01,2013-10-16 10:30:00,
2013-10-16 06:35:00,48.5,24.1,29.92,NW,323,0.0,0.0,38,0.00,,,0.00,VWS V14.01,2013-10-16 10:35:00,
2013-10-16 06:40:00,48.9,23.8,29.92,NW,323,0.0,0.0,37,0.00,,,0.00,VWS V14.01,2013-10-16 10:40:00,
2013-10-16 06:45:00,48.8,23.7,29.92,NW,323,0.0,1.0,37,0.00,,,0.00,VWS V14.01,2013-10-16 10:45:00,
2013-10-16 06:50:00,48.6,23.5,29.93,NW,323,0.0,0.0,37,0.00,,,0.00,VWS V14.01,2013-10-16 10:50:00,
2013-10-16 06:55:00,48.8,23.7,29.92,NW,323,1.0,2.0,37,0.00,,,0.00,VWS V14.01,2013-10-16 10:55:00,
2013-10-16 07:00:00,48.6,23.5,29.93,NW,323,1.0,2.0,37,0.00,,,0.00,VWS V14.01,2013-10-16 11:00:00,
2013-10-16 07:05:00,47.8,23.4,29.93,NW,323,1.0,2.0,38,0.00,,,0.00,VWS V14.01,2013-10-16 11:05:00,
2013-10-16 07:10:00,47.6,23.3,29.93,NW,323,0.0,1.0,38,0.00,,,0.00,VWS V14.01,2013-10-16 11:10:00,
2013-10-16 07:15:00,47.7,23.4,29.93,NW,323,1.0,1.0,38,0.00,,,0.00,VWS V14.01,2013-10-16 11:15:00,
2013-10-16 07:20:00,47.3,23.0,29.93,NW,323,1.0,2.0,38,0.00,,,0.00,VWS V14.01,2013-10-16 11:20:00,
2013-10-16 07:25:00,47.1,22.8,29.93,NW,323,0.0,3.0,38,0.00,,,0.00,VWS V14.01,2013-10-16 11:25:00,
2013-10-16 07:30:00,46.7,23.1,29.93,NNW,329,1.0,3.0,39,0.00,,,0.00,VWS V14.01,2013-10-16 11:30:00,
2013-10-16 07:35:00,46.6,23.0,29.94,NNW,329,0.0,2.0,39,0.00,,,0.00,VWS V14.01,2013-10-16 11:35:00,
2013-10-16 07:40:00,46.5,22.9,29.94,NNW,329,0.0,0.0,39,0.00,,,0.00,VWS V14.01,2013-10-16 11:40:00,
2013-10-16 07:45:00,46.5,22.9,29.94,NNW,329,0.0,2.0,39,0.00,,,0.00,VWS V14.01,2013-10-16 11:45:00,
2013-10-16 07:48:00,47.7,23.4,29.93,NW,323,1.0,1.0,38,0.00,,,0.00,VWS V14.01,2013-10-16 11:48:00,
2013-10-16 07:50:00,46.7,23.1,29.94,NNW,329,2.0,2.0,39,0.00,,,0.00,VWS V14.01,2013-10-16 11:50:00,
2013-10-16 07:53:00,47.3,23.0,29.93,NW,323,1.0,1.0,38,0.00,,,0.00,VWS V14.01,2013-10-16 11:53:00,
2013-10-16 07:55:00,46.5,22.9,29.94,NNW,329,1.0,3.0,39,0.00,,,0.00,VWS V14.01,2013-10-16 11:55:00,
2013-10-16 08:00:00,46.1,22.5,29.94,NNW,331,2.0,3.0,39,0.00,,,0.00,VWS V14.01,2013-10-16 12:00:00,
2013-10-16 08:03:00,46.7,23.1,29.93,NNW,329,1.0,2.0,39,0.00,,,0.00,VWS V14.01,2013-10-16 12:03:00,
2013-10-16 08:05:00,45.7,22.8,29.95,NNW,331,1.0,4.0,40,0.00,,,0.00,VWS V14.01,2013-10-16 12:05:00,
2013-10-16 08:08:00,46.6,23.0,29.94,NNW,329,0.0,0.0,39,0.00,,,0.00,VWS V14.01,2013-10-16 12:08:00,
2013-10-16 08:10:00,45.9,23.0,29.95,NNW,332,1.0,3.0,40,0.00,,,0.00,VWS V14.01,2013-10-16 12:10:00,
2013-10-16 08:15:00,46.0,23.0,29.95,NNW,331,0.0,2.0,40,0.00,,,0.00,VWS V14.01,2013-10-16 12:15:00,
2013-10-16 08:18:00,46.5,22.9,29.94,NNW,329,0.0,0.0,39,0.00,,,0.00,VWS V14.01,2013-10-16 12:18:00,
2013-10-16 08:20:00,45.9,23.0,29.95,NNW,331,2.0,3.0,40,0.00,,,0.00,VWS V14.01,2013-10-16 12:20:00,
2013-10-16 08:23:00,46.7,23.1,29.94,NNW,329,1.0,2.0,39,0.00,,,0.00,VWS V14.01,2013-10-16 12:23:00,
2013-10-16 08:25:00,45.9,23.0,29.95,NNW,327,1.0,2.0,40,0.00,,,0.00,VWS V14.01,2013-10-16 12:25:00,
2013-10-16 08:30:00,45.8,22.9,29.96,NNW,339,3.0,4.0,40,0.00,,,0.00,VWS V14.01,2013-10-16 12:30:00,
2013-10-16 08:35:00,46.7,23.1,29.95,NNW,340,2.0,4.0,39,0.00,,,0.00,VWS V14.01,2013-10-16 12:35:00,
2013-10-16 08:38:00,45.7,22.8,29.95,NNW,331,1.0,4.0,40,0.00,,,0.00,VWS V14.01,2013-10-16 12:38:00,
2013-10-16 08:40:00,47.9,23.5,29.96,NNW,340,0.0,2.0,38,0.00,,,0.00,VWS V14.01,2013-10-16 12:40:00,
2013-10-16 08:43:00,45.9,23.0,29.95,NNW,332,1.0,2.0,40,0.00,,,0.00,VWS V14.01,2013-10-16 12:43:00,
2013-10-16 08:45:00,48.1,23.1,29.96,NNW,340,0.0,2.0,37,0.00,,,0.00,VWS V14.01,2013-10-16 12:45:00,
2013-10-16 08:50:00,48.7,23.0,29.96,NNW,341,1.0,2.0,36,0.00,,,0.00,VWS V14.01,2013-10-16 12:50:00,
2013-10-16 08:55:00,48.4,22.7,29.97,North,355,3.0,3.0,36,0.00,,,0.00,VWS V14.01,2013-10-16 12:55:00,
2013-10-16 09:00:00,47.8,22.8,29.97,North,355,0.0,3.0,37,0.00,,,0.00,VWS V14.01,2013-10-16 13:00:00,
2013-10-16 09:05:00,46.8,22.5,29.97,North,355,0.0,3.0,38,0.00,,,0.00,VWS V14.01,2013-10-16 13:05:00,
2013-10-16 09:10:00,46.7,22.5,29.97,North,355,2.0,3.0,38,0.00,,,0.00,VWS V14.01,2013-10-16 13:10:00,
2013-10-16 09:15:00,46.9,22.0,29.97,North,355,0.0,3.0,37,0.00,,,0.00,VWS V14.01,2013-10-16 13:15:00,
2013-10-16 09:20:00,47.1,22.2,29.97,North,355,1.0,3.0,37,0.00,,,0.00,VWS V14.01,2013-10-16 13:20:00,
2013-10-16 09:23:00,48.6,22.9,29.96,NNW,341,2.0,3.0,36,0.00,,,0.00,VWS V14.01,2013-10-16 13:23:00,
2013-10-16 09:25:00,46.7,22.5,29.97,North,355,1.0,3.0,38,0.00,,,0.00,VWS V14.01,2013-10-16 13:25:00,
2013-10-16 09:28:00,48.3,22.6,29.97,North,355,2.0,3.0,36,0.00,,,0.00,VWS V14.01,2013-10-16 13:28:00,
2013-10-16 09:30:00,46.3,22.1,29.98,North,351,0.0,3.0,38,0.00,,,0.00,VWS V14.01,2013-10-16 13:30:00,
2013-10-16 09:35:00,45.9,22.4,29.98,North,351,1.0,2.0,39,0.00,,,0.00,VWS V14.01,2013-10-16 13:35:00,
2013-10-16 09:38:00,46.8,22.5,29.97,North,355,0.0,3.0,38,0.00,,,0.00,VWS V14.01,2013-10-16 13:38:00,
2013-10-16 09:40:00,46.6,23.0,29.98,North,351,0.0,0.0,39,0.00,,,0.00,VWS V14.01,2013-10-16 13:40:00,
2013-10-16 09:43:00,46.8,22.5,29.97,North,355,0.0,2.0,38,0.00,,,0.00,VWS V14.01,2013-10-16 13:43:00,
2013-10-16 09:45:00,47.8,22.8,29.98,North,351,0.0,0.0,37,0.00,,,0.00,VWS V14.01,2013-10-16 13:45:00,
2013-10-16 09:50:00,49.2,23.4,29.99,North,351,0.0,0.0,36,0.00,,,0.00,VWS V14.01,2013-10-16 13:50:00,
2013-10-16 09:53:00,47.1,22.2,29.97,North,355,0.0,1.0,37,0.00,,,0.00,VWS V14.01,2013-10-16 13:53:00,
2013-10-16 09:55:00,50.4,23.8,29.99,North,351,0.0,0.0,35,0.00,,,0.00,VWS V14.01,2013-10-16 13:55:00,
2013-10-16 09:58:00,46.7,22.5,29.97,North,355,2.0,2.0,38,0.00,,,0.00,VWS V14.01,2013-10-16 13:58:00,
2013-10-16 10:00:00,51.7,24.3,29.99,North,351,0.0,0.0,34,0.00,,,0.00,VWS V14.01,2013-10-16 14:00:00,
2013-10-16 10:03:00,46.2,22.0,29.98,North,351,1.0,1.0,38,0.00,,,0.00,VWS V14.01,2013-10-16 14:03:00,
2013-10-16 10:05:00,53.4,26.5,29.99,North,355,0.0,1.0,35,0.00,,,0.00,VWS V14.01,2013-10-16 14:05:00,
2013-10-16 10:08:00,45.9,22.4,29.98,North,351,1.0,1.0,39,0.00,,,0.00,VWS V14.01,2013-10-16 14:08:00,
2013-10-16 10:10:00,54.5,26.0,30.00,North,355,1.0,2.0,33,0.00,,,0.00,VWS V14.01,2013-10-16 14:10:00,
2013-10-16 10:15:00,55.5,26.1,30.00,North,355,2.0,4.0,32,0.00,,,0.00,VWS V14.01,2013-10-16 14:15:00,
2013-10-16 10:20:00,56.5,26.2,30.00,NNW,348,0.0,6.0,31,0.00,,,0.00,VWS V14.01,2013-10-16 14:20:00,
2013-10-16 10:25:00,57.7,25.7,30.00,NNW,341,1.0,4.0,29,0.00,,,0.00,VWS V14.01,2013-10-16 14:25:00,
2013-10-16 10:30:00,59.1,26.0,30.00,North,355,3.0,4.0,28,0.00,,,0.00,VWS V14.01,2013-10-16 14:30:00,
2013-10-16 10:33:00,51.5,24.1,29.99,North,351,0.0,0.0,34,0.00,,,0.00,VWS V14.01,2013-10-16 14:33:00,
2013-10-16 10:35:00,60.3,26.2,30.01,North,355,0.0,4.0,27,0.00,,,0.00,VWS V14.01,2013-10-16 14:35:00,
2013-10-16 10:40:00,61.2,26.1,30.01,North,5,2.0,4.0,26,0.00,,,0.00,VWS V14.01,2013-10-16 14:40:00,
2013-10-16 10:45:00,61.7,25.5,30.01,NNW,327,2.0,5.0,25,0.00,,,0.00,VWS V14.01,2013-10-16 14:45:00,
2013-10-16 10:50:00,61.6,25.5,30.01,NNW,333,1.0,4.0,25,0.00,,,0.00,VWS V14.01,2013-10-16 14:50:00,
2013-10-16 10:55:00,61.7,25.5,30.01,NNW,327,0.0,5.0,25,0.00,,,0.00,VWS V14.01,2013-10-16 14:55:00,
2013-10-16 11:00:00,61.9,26.7,30.01,NW,321,2.0,5.0,26,0.00,,,0.00,VWS V14.01,2013-10-16 15:00:00,
2013-10-16 11:05:00,62.2,26.0,30.02,NW,322,3.0,6.0,25,0.00,,,0.00,VWS V14.01,2013-10-16 15:05:00,
2013-10-16 11:10:00,62.4,26.1,30.02,NNW,340,3.0,6.0,25,0.00,,,0.00,VWS V14.01,2013-10-16 15:10:00,
2013-10-16 11:15:00,63.0,26.6,30.02,NW,321,3.0,7.0,25,0.00,,,0.00,VWS V14.01,2013-10-16 15:15:00,
2013-10-16 11:20:00,63.6,26.2,30.02,NW,315,2.0,4.0,24,0.00,,,0.00,VWS V14.01,2013-10-16 15:20:00,
2013-10-16 11:25:00,63.8,25.3,30.02,NW,323,0.0,4.0,23,0.00,,,0.00,VWS V14.01,2013-10-16 15:25:00,
2013-10-16 11:30:00,64.9,26.2,30.02,NW,323,0.0,4.0,23,0.00,,,0.00,VWS V14.01,2013-10-16 15:30:00,
2013-10-16 11:35:00,65.7,24.7,30.02,NNW,330,2.0,4.0,21,0.00,,,0.00,VWS V14.01,2013-10-16 15:35:00,
2013-10-16 11:40:00,65.6,24.6,30.02,WNW,297,2.0,4.0,21,0.00,,,0.00,VWS V14.01,2013-10-16 15:40:00,
2013-10-16 11:45:00,65.6,23.5,30.02,North,355,1.0,4.0,20,0.00,,,0.00,VWS V14.01,2013-10-16 15:45:00,
2013-10-16 11:50:00,65.7,24.7,30.02,NW,322,0.0,3.0,21,0.00,,,0.00,VWS V14.01,2013-10-16 15:50:00,
2013-10-16 11:55:00,66.2,25.1,30.02,NNW,338,3.0,4.0,21,0.00,,,0.00,VWS V14.01,2013-10-16 15:55:00,
2013-10-16 12:00:00,67.0,24.6,30.02,WNW,296,0.0,3.0,20,0.00,,,0.00,VWS V14.01,2013-10-16 16:00:00,
2013-10-16 12:05:00,67.1,23.5,30.02,NW,321,0.0,3.0,19,0.00,,,0.00,VWS V14.01,2013-10-16 16:05:00,
2013-10-16 12:10:00,67.6,23.9,30.02,NNW,339,3.0,5.0,19,0.00,,,0.00,VWS V14.01,2013-10-16 16:10:00,
2013-10-16 12:15:00,67.4,23.7,30.02,NNW,340,1.0,3.0,19,0.00,,,0.00,VWS V14.01,2013-10-16 16:15:00,
2013-10-16 12:20:00,68.4,24.6,30.02,NW,304,1.0,3.0,19,0.00,,,0.00,VWS V14.01,2013-10-16 16:20:00,
2013-10-16 12:25:00,69.0,25.1,30.02,WSW,246,0.0,5.0,19,0.00,,,0.00,VWS V14.01,2013-10-16 16:25:00,
2013-10-16 12:30:00,68.8,23.6,30.02,WSW,244,0.0,3.0,18,0.00,,,0.00,VWS V14.01,2013-10-16 16:30:00,
2013-10-16 12:35:00,68.9,23.7,30.02,WSW,244,0.0,2.0,18,0.00,,,0.00,VWS V14.01,2013-10-16 16:35:00,
2013-10-16 12:40:00,70.8,25.2,30.01,SW,235,4.0,5.0,18,0.00,,,0.00,VWS V14.01,2013-10-16 16:40:00,
2013-10-16 12:45:00,69.6,24.2,30.01,SW,235,0.0,5.0,18,0.00,,,0.00,VWS V14.01,2013-10-16 16:45:00,
2013-10-16 12:50:00,70.6,25.1,30.02,WSW,249,2.0,4.0,18,0.00,,,0.00,VWS V14.01,2013-10-16 16:50:00,
2013-10-16 12:55:00,71.3,24.3,30.02,SSW,198,0.0,4.0,17,0.00,,,0.00,VWS V14.01,2013-10-16 16:55:00,
2013-10-16 13:00:00,71.3,22.8,30.02,SW,226,1.0,6.0,16,0.00,,,0.00,VWS V14.01,2013-10-16 17:00:00,
2013-10-16 13:05:00,70.3,23.5,30.02,SW,227,0.0,3.0,17,0.00,,,0.00,VWS V14.01,2013-10-16 17:05:00,
2013-10-16 13:10:00,70.9,22.5,30.01,SW,236,5.0,7.0,16,0.00,,,0.00,VWS V14.01,2013-10-16 17:10:00,
2013-10-16 13:15:00,71.7,21.6,30.01,SW,234,0.0,5.0,15,0.00,,,0.00,VWS V14.01,2013-10-16 17:15:00,
2013-10-16 13:20:00,71.9,21.8,30.01,SSW,202,2.0,6.0,15,0.00,,,0.00,VWS V14.01,2013-10-16 17:20:00,
2013-10-16 13:25:00,71.3,21.3,30.01,SSW,193,0.0,4.0,15,0.00,,,0.00,VWS V14.01,2013-10-16 17:25:00,
2013-10-16 13:30:00,72.6,20.7,30.01,SW,229,0.0,4.0,14,0.00,,,0.00,VWS V14.01,2013-10-16 17:30:00,
2013-10-16 13:35:00,73.2,22.8,30.01,SW,227,2.0,7.0,15,0.00,,,0.00,VWS V14.01,2013-10-16 17:35:00,
2013-10-16 13:40:00,73.1,21.1,30.01,SW,219,0.0,7.0,14,0.00,,,0.00,VWS V14.01,2013-10-16 17:40:00,
2013-10-16 13:45:00,73.0,22.7,30.01,SW,221,2.0,7.0,15,0.00,,,0.00,VWS V14.01,2013-10-16 17:45:00,
2013-10-16 13:50:00,73.7,21.6,30.01,WSW,242,0.0,4.0,14,0.00,,,0.00,VWS V14.01,2013-10-16 17:50:00,
2013-10-16 13:55:00,72.8,22.5,30.01,WSW,256,0.0,6.0,15,0.00,,,0.00,VWS V14.01,2013-10-16 17:55:00,
2013-10-16 14:00:00,73.2,21.2,30.00,SW,226,1.0,4.0,14,0.00,,,0.00,VWS V14.01,2013-10-16 18:00:00,
2013-10-16 14:05:00,71.2,21.2,30.00,NW,304,0.0,3.0,15,0.00,,,0.00,VWS V14.01,2013-10-16 18:05:00,
2013-10-16 14:10:00,71.7,21.6,30.00,ENE,70,3.0,4.0,15,0.00,,,0.00,VWS V14.01,2013-10-16 18:10:00,
2013-10-16 14:15:00,71.7,20.0,29.99,NE,45,1.0,6.0,14,0.00,,,0.00,VWS V14.01,2013-10-16 18:15:00,
2013-10-16 14:20:00,72.9,22.6,29.99,WSW,251,2.0,3.0,15,0.00,,,0.00,VWS V14.01,2013-10-16 18:20:00,
2013-10-16 14:25:00,72.8,20.9,29.99,SW,215,5.0,5.0,14,0.00,,,0.00,VWS V14.01,2013-10-16 18:25:00,
2013-10-16 14:30:00,74.5,20.5,29.99,SW,222,2.0,6.0,13,0.00,,,0.00,VWS V14.01,2013-10-16 18:30:00,
2013-10-16 14:35:00,74.9,20.8,29.99,SW,217,0.0,7.0,13,0.00,,,0.00,VWS V14.01,2013-10-16 18:35:00,
2013-10-16 14:40:00,73.5,19.7,29.98,South,188,0.0,8.0,13,0.00,,,0.00,VWS V14.01,2013-10-16 18:40:00,
2013-10-16 14:45:00,74.5,20.5,29.98,SW,221,0.0,3.0,13,0.00,,,0.00,VWS V14.01,2013-10-16 18:45:00,
2013-10-16 14:50:00,75.0,20.9,29.98,SSW,205,7.0,8.0,13,0.00,,,0.00,VWS V14.01,2013-10-16 18:50:00,
2013-10-16 14:55:00,73.4,19.6,29.98,NNW,329,3.0,7.0,13,0.00,,,0.00,VWS V14.01,2013-10-16 18:55:00,
2013-10-16 15:00:00,74.5,20.5,29.97,SW,221,8.0,9.0,13,0.00,,,0.00,VWS V14.01,2013-10-16 19:00:00,
2013-10-16 15:05:00,75.0,20.9,29.97,SSW,199,2.0,10.0,13,0.00,,,0.00,VWS V14.01,2013-10-16 19:05:00,
2013-10-16 15:10:00,74.3,20.3,29.97,WSW,249,1.0,2.0,13,0.00,,,0.00,VWS V14.01,2013-10-16 19:10:00,
2013-10-16 15:15:00,74.6,20.5,29.97,WSW,254,1.0,4.0,13,0.00,,,0.00,VWS V14.01,2013-10-16 19:15:00,
2013-10-16 15:20:00,74.6,20.5,29.97,WNW,292,0.0,8.0,13,0.00,,,0.00,VWS V14.01,2013-10-16 19:20:00,
2013-10-16 15:25:00,74.8,18.8,29.97,West,275,2.0,5.0,12,0.00,,,0.00,VWS V14.01,2013-10-16 19:25:00,
2013-10-16 15:30:00,75.0,19.0,29.96,WSW,240,0.0,4.0,12,0.00,,,0.00,VWS V14.01,2013-10-16 19:30:00,
2013-10-16 15:35:00,73.6,19.8,29.96,North,355,2.0,3.0,13,0.00,,,0.00,VWS V14.01,2013-10-16 19:35:00,
2013-10-16 15:40:00,75.5,19.4,29.96,SW,225,4.0,5.0,12,0.00,,,0.00,VWS V14.01,2013-10-16 19:40:00,
2013-10-16 15:45:00,76.7,20.3,29.96,SW,220,6.0,7.0,12,0.00,,,0.00,VWS V14.01,2013-10-16 19:45:00,
2013-10-16 15:50:00,77.0,20.5,29.96,SW,232,0.0,6.0,12,0.00,,,0.00,VWS V14.01,2013-10-16 19:50:00,
2013-10-16 15:55:00,76.8,18.4,29.96,SW,232,0.0,4.0,11,0.00,,,0.00,VWS V14.01,2013-10-16 19:55:00,
2013-10-16 16:00:00,76.5,18.1,29.96,SW,232,0.0,6.0,11,0.00,,,0.00,VWS V14.01,2013-10-16 20:00:00,
2013-10-16 16:05:00,76.6,16.0,29.96,SW,232,1.0,2.0,10,0.00,,,0.00,VWS V14.01,2013-10-16 20:05:00,
2013-10-16 16:10:00,76.8,18.4,29.95,SSW,200,2.0,8.0,11,0.00,,,0.00,VWS V14.01,2013-10-16 20:10:00,
2013-10-16 16:15:00,76.0,17.7,29.95,South,190,2.0,5.0,11,0.00,,,0.00,VWS V14.01,2013-10-16 20:15:00,
2013-10-16 16:20:00,77.0,16.3,29.96,SSW,206,0.0,6.0,10,0.00,,,0.00,VWS V14.01,2013-10-16 20:20:00,
2013-10-16 16:25:00,77.2,16.5,29.95,WSW,237,0.0,7.0,10,0.00,,,0.00,VWS V14.01,2013-10-16 20:25:00,
2013-10-16 16:30:00,76.9,16.2,29.95,WSW,243,0.0,4.0,10,0.00,,,0.00,VWS V14.01,2013-10-16 20:30:00,
2013-10-16 16:35:00,77.7,14.4,29.95,SW,217,1.0,8.0,9,0.00,,,0.00,VWS V14.01,2013-10-16 20:35:00,
2013-10-16 16:40:00,77.4,14.2,29.95,SW,223,0.0,10.0,9,0.00,,,0.00,VWS V14.01,2013-10-16 20:40:00,
2013-10-16 16:45:00,77.0,13.9,29.95,SW,222,3.0,3.0,9,0.00,,,0.00,VWS V14.01,2013-10-16 20:45:00,
2013-10-16 16:50:00,75.7,15.3,29.95,West,277,0.0,3.0,10,0.00,,,0.00,VWS V14.01,2013-10-16 20:50:00,
2013-10-16 16:55:00,77.8,14.5,29.95,WSW,252,1.0,8.0,9,0.00,,,0.00,VWS V14.01,2013-10-16 20:55:00,
2013-10-16 17:00:00,76.9,13.8,29.95,SSW,205,0.0,8.0,9,0.00,,,0.00,VWS V14.01,2013-10-16 21:00:00,
2013-10-16 17:05:00,77.0,13.9,29.95,SW,221,5.0,9.0,9,0.00,,,0.00,VWS V14.01,2013-10-16 21:05:00,
2013-10-16 17:10:00,77.3,14.1,29.95,SW,215,2.0,9.0,9,0.00,,,0.00,VWS V14.01,2013-10-16 21:10:00,
2013-10-16 17:15:00,78.0,14.6,29.94,SW,227,5.0,8.0,9,0.00,,,0.00,VWS V14.01,2013-10-16 21:15:00,
2013-10-16 17:20:00,76.9,13.8,29.95,West,279,2.0,8.0,9,0.00,,,0.00,VWS V14.01,2013-10-16 21:20:00,
2013-10-16 17:25:00,76.3,13.4,29.95,West,273,2.0,6.0,9,0.00,,,0.00,VWS V14.01,2013-10-16 21:25:00,
2013-10-16 17:30:00,76.7,16.1,29.94,SSW,213,0.0,7.0,10,0.00,,,0.00,VWS V14.01,2013-10-16 21:30:00,
2013-10-16 17:35:00,77.1,16.4,29.95,SW,225,3.0,6.0,10,0.00,,,0.00,VWS V14.01,2013-10-16 21:35:00,
2013-10-16 17:40:00,76.9,16.2,29.95,SW,217,3.0,11.0,10,0.00,,,0.00,VWS V14.01,2013-10-16 21:40:00,
2013-10-16 17:45:00,76.7,16.1,29.94,SW,235,1.0,4.0,10,0.00,,,0.00,VWS V14.01,2013-10-16 21:45:00,
2013-10-16 17:50:00,76.8,16.2,29.94,SW,215,5.0,9.0,10,0.00,,,0.00,VWS V14.01,2013-10-16 21:50:00,
2013-10-16 17:55:00,76.2,15.7,29.94,SSW,209,5.0,5.0,10,0.00,,,0.00,VWS V14.01,2013-10-16 21:55:00,
2013-10-16 18:00:00,76.0,15.6,29.94,SSW,198,4.0,8.0,10,0.00,,,0.00,VWS V14.01,2013-10-16 22:00:00,
2013-10-16 18:05:00,76.0,15.6,29.94,West,277,1.0,5.0,10,0.00,,,0.00,VWS V14.01,2013-10-16 22:05:00,
2013-10-16 18:10:00,76.0,15.6,29.94,WNW,282,2.0,5.0,10,0.00,,,0.00,VWS V14.01,2013-10-16 22:10:00,
2013-10-16 18:15:00,76.0,15.6,29.94,SW,215,8.0,8.0,10,0.00,,,0.00,VWS V14.01,2013-10-16 22:15:00,
2013-10-16 18:20:00,75.8,15.4,29.94,WSW,252,1.0,8.0,10,0.00,,,0.00,VWS V14.01,2013-10-16 22:20:00,
2013-10-16 18:25:00,76.0,15.6,29.94,WSW,241,2.0,3.0,10,0.00,,,0.00,VWS V14.01,2013-10-16 22:25:00,
2013-10-16 18:30:00,75.5,15.2,29.94,West,267,0.0,8.0,10,0.00,,,0.00,VWS V14.01,2013-10-16 22:30:00,
2013-10-16 18:35:00,75.4,15.1,29.94,West,261,0.0,5.0,10,0.00,,,0.00,VWS V14.01,2013-10-16 22:35:00,
2013-10-16 18:40:00,75.2,14.9,29.94,WSW,238,2.0,5.0,10,0.00,,,0.00,VWS V14.01,2013-10-16 22:40:00,
2013-10-16 18:45:00,75.1,14.9,29.94,SSW,204,4.0,7.0,10,0.00,,,0.00,VWS V14.01,2013-10-16 22:45:00,
2013-10-16 18:50:00,74.9,14.7,29.94,SSW,209,0.0,5.0,10,0.00,,,0.00,VWS V14.01,2013-10-16 22:50:00,
2013-10-16 18:55:00,74.9,14.7,29.94,SW,223,3.0,6.0,10,0.00,,,0.00,VWS V14.01,2013-10-16 22:55:00,
2013-10-16 19:00:00,74.6,14.5,29.94,WSW,240,3.0,5.0,10,0.00,,,0.00,VWS V14.01,2013-10-16 23:00:00,
2013-10-16 19:05:00,74.4,14.3,29.94,SW,224,4.0,9.0,10,0.00,,,0.00,VWS V14.01,2013-10-16 23:05:00,
2013-10-16 19:10:00,74.4,14.3,29.94,SSW,200,3.0,7.0,10,0.00,,,0.00,VWS V14.01,2013-10-16 23:10:00,
2013-10-16 19:15:00,74.2,14.2,29.94,SW,229,4.0,6.0,10,0.00,,,0.00,VWS V14.01,2013-10-16 23:15:00,
2013-10-16 19:20:00,74.2,14.2,29.94,SW,229,3.0,5.0,10,0.00,,,0.00,VWS V14.01,2013-10-16 23:20:00,
2013-10-16 19:25:00,73.9,13.9,29.94,SW,226,1.0,6.0,10,0.00,,,0.00,VWS V14.01,2013-10-16 23:25:00,
2013-10-16 19:30:00,73.5,13.6,29.94,West,270,0.0,4.0,10,0.00,,,0.00,VWS V14.01,2013-10-16 23:30:00,
2013-10-16 19:35:00,73.4,13.6,29.95,WSW,253,0.0,3.0,10,0.00,,,0.00,VWS V14.01,2013-10-16 23:35:00,
2013-10-16 19:40:00,73.1,13.3,29.94,WSW,252,2.0,3.0,10,0.00,,,0.00,VWS V14.01,2013-10-16 23:40:00,
2013-10-16 19:45:00,72.6,12.9,29.95,WSW,253,1.0,3.0,10,0.00,,,0.00,VWS V14.01,2013-10-16 23:45:00,
2013-10-16 19:50:00,72.3,14.9,29.95,WSW,249,0.0,4.0,11,0.00,,,0.00,VWS V14.01,2013-10-16 23:50:00,
2013-10-16 19:55:00,71.9,14.6,29.95,WSW,258,3.0,3.0,11,0.00,,,0.00,VWS V14.01,2013-10-16 23:55:00,
2013-10-16 20:00:00,71.6,14.4,29.95,West,268,0.0,4.0,11,0.00,,,0.00,VWS V14.01,2013-10-17 00:00:00,
2013-10-16 20:05:00,71.1,14.0,29.95,West,268,0.0,2.0,11,0.00,,,0.00,VWS V14.01,2013-10-17 00:05:00,
2013-10-16 20:10:00,70.3,13.3,29.95,West,268,0.0,1.0,11,0.00,,,0.00,VWS V14.01,2013-10-17 00:10:00,
2013-10-16 20:15:00,69.9,13.0,29.95,West,268,0.0,2.0,11,0.00,,,0.00,VWS V14.01,2013-10-17 00:15:00,
2013-10-16 20:20:00,69.4,12.6,29.95,West,268,0.0,1.0,11,0.00,,,0.00,VWS V14.01,2013-10-17 00:20:00,
2013-10-16 20:25:00,68.7,14.1,29.95,West,268,0.0,2.0,12,0.00,,,0.00,VWS V14.01,2013-10-17 00:25:00,
2013-10-16 20:30:00,68.1,13.6,29.95,West,268,1.0,2.0,12,0.00,,,0.00,VWS V14.01,2013-10-17 00:30:00,
2013-10-16 20:35:00,67.4,14.9,29.95,West,268,0.0,1.0,13,0.00,,,0.00,VWS V14.01,2013-10-17 00:35:00,
2013-10-16 20:40:00,66.8,14.4,29.96,West,273,0.0,3.0,13,0.00,,,0.00,VWS V14.01,2013-10-17 00:40:00,
2013-10-16 20:45:00,66.3,15.7,29.95,West,273,0.0,1.0,14,0.00,,,0.00,VWS V14.01,2013-10-17 00:45:00,
2013-10-16 20:50:00,66.0,15.5,29.96,West,273,0.0,2.0,14,0.00,,,0.00,VWS V14.01,2013-10-17 00:50:00,
2013-10-16 20:55:00,65.8,15.3,29.96,West,273,0.0,3.0,14,0.00,,,0.00,VWS V14.01,2013-10-17 00:55:00,
2013-10-16 21:00:00,65.6,16.7,29.96,West,273,1.0,2.0,15,0.00,,,0.00,VWS V14.01,2013-10-17 01:00:00,
2013-10-16 21:05:00,65.1,16.3,29.96,West,273,0.0,2.0,15,0.00,,,0.00,VWS V14.01,2013-10-17 01:05:00,
2013-10-16 21:10:00,64.8,16.1,29.96,NNW,341,0.0,4.0,15,0.00,,,0.00,VWS V14.01,2013-10-17 01:10:00,
2013-10-16 21:15:00,64.2,17.1,29.97,NNW,341,0.0,3.0,16,0.00,,,0.00,VWS V14.01,2013-10-17 01:15:00,
2013-10-16 21:20:00,64.0,16.9,29.97,NNW,341,0.0,2.0,16,0.00,,,0.00,VWS V14.01,2013-10-17 01:20:00,
2013-10-16 21:25:00,64.0,16.9,29.97,NNW,341,0.0,2.0,16,0.00,,,0.00,VWS V14.01,2013-10-17 01:25:00,
2013-10-16 21:30:00,63.0,17.5,29.97,NNW,341,2.0,2.0,17,0.00,,,0.00,VWS V14.01,2013-10-17 01:30:00,
2013-10-16 21:35:00,62.7,17.3,29.97,NNW,341,0.0,2.0,17,0.00,,,0.00,VWS V14.01,2013-10-17 01:35:00,
2013-10-16 21:40:00,62.5,18.5,29.97,NNW,341,0.0,1.0,18,0.00,,,0.00,VWS V14.01,2013-10-17 01:40:00,
2013-10-16 21:45:00,61.8,19.1,29.97,NNW,341,1.0,1.0,19,0.00,,,0.00,VWS V14.01,2013-10-17 01:45:00,
2013-10-16 21:50:00,60.8,18.3,29.97,East,101,2.0,4.0,19,0.00,,,0.00,VWS V14.01,2013-10-17 01:50:00,
2013-10-16 21:55:00,60.3,17.9,29.98,East,98,2.0,5.0,19,0.00,,,0.00,VWS V14.01,2013-10-17 01:55:00,
2013-10-16 22:00:00,60.8,18.3,29.98,East,92,0.0,4.0,19,0.00,,,0.00,VWS V14.01,2013-10-17 02:00:00,
2013-10-16 22:05:00,61.1,18.5,29.98,East,92,2.0,2.0,19,0.00,,,0.00,VWS V14.01,2013-10-17 02:05:00,
2013-10-16 22:10:00,60.8,18.3,29.98,East,90,0.0,4.0,19,0.00,,,0.00,VWS V14.01,2013-10-17 02:10:00,
2013-10-16 22:11:00,60.7,18.2,29.98,East,90,1.0,2.0,19,0.00,,,0.00,VWS V14.01,2013-10-17 02:11:00,
2013-10-16 22:15:00,60.4,19.2,29.98,East,90,1.0,2.0,20,0.00,,,0.00,VWS V14.01,2013-10-17 02:15:00,
2013-10-16 22:16:00,60.3,19.1,29.98,East,90,0.0,1.0,20,0.00,,,0.00,VWS V14.01,2013-10-17 02:16:00,
2013-10-16 22:20:00,60.1,18.9,29.98,East,90,1.0,2.0,20,0.00,,,0.00,VWS V14.01,2013-10-17 02:20:00,
2013-10-16 22:21:00,60.0,18.8,29.98,East,88,1.0,2.0,20,0.00,,,0.00,VWS V14.01,2013-10-17 02:21:00,
2013-10-16 22:25:00,59.9,19.9,29.98,ENE,59,0.0,3.0,21,0.00,,,0.00,VWS V14.01,2013-10-17 02:25:00,
2013-10-16 22:26:00,59.8,19.8,29.98,ENE,58,0.0,2.0,21,0.00,,,0.00,VWS V14.01,2013-10-17 02:26:00,
2013-10-16 22:30:00,59.7,19.7,29.98,NNE,22,2.0,3.0,21,0.00,,,0.00,VWS V14.01,2013-10-17 02:30:00,
2013-10-16 22:31:00,59.8,19.8,29.98,NNE,22,2.0,3.0,21,0.00,,,0.00,VWS V14.01,2013-10-17 02:31:00,
2013-10-16 22:35:00,59.8,19.8,29.99,NNE,26,2.0,4.0,21,0.00,,,0.00,VWS V14.01,2013-10-17 02:35:00,
2013-10-16 22:36:00,59.8,19.8,29.99,NNE,23,2.0,3.0,21,0.00,,,0.00,VWS V14.01,2013-10-17 02:36:00,
2013-10-16 22:40:00,59.8,19.8,29.98,NE,34,2.0,3.0,21,0.00,,,0.00,VWS V14.01,2013-10-17 02:40:00,
2013-10-16 22:41:00,59.9,19.9,29.99,NE,36,1.0,2.0,21,0.00,,,0.00,VWS V14.01,2013-10-17 02:41:00,
2013-10-16 22:45:00,59.7,19.7,29.99,NE,42,0.0,3.0,21,0.00,,,0.00,VWS V14.01,2013-10-17 02:45:00,
2013-10-16 22:46:00,59.6,19.6,29.99,NE,42,1.0,1.0,21,0.00,,,0.00,VWS V14.01,2013-10-17 02:46:00,
2013-10-16 22:50:00,59.2,20.4,29.99,NE,40,1.0,2.0,22,0.00,,,0.00,VWS V14.01,2013-10-17 02:50:00,
2013-10-16 22:51:00,59.1,20.3,29.99,NE,40,0.0,3.0,22,0.00,,,0.00,VWS V14.01,2013-10-17 02:51:00,
2013-10-16 22:55:00,58.8,20.1,29.99,NE,40,1.0,3.0,22,0.00,,,0.00,VWS V14.01,2013-10-17 02:55:00,
2013-10-16 22:56:00,58.7,20.0,29.99,NE,34,2.0,3.0,22,0.00,,,0.00,VWS V14.01,2013-10-17 02:56:00,
2013-10-16 23:05:00,58.1,20.5,29.99,North,360,1.0,5.0,23,0.00,,,0.00,VWS V14.01,2013-10-17 03:05:00,
2013-10-16 23:06:00,58.2,20.6,29.99,North,5,2.0,3.0,23,0.00,,,0.00,VWS V14.01,2013-10-17 03:06:00,
2013-10-16 23:10:00,58.2,20.6,29.99,NNE,12,1.0,4.0,23,0.00,,,0.00,VWS V14.01,2013-10-17 03:10:00,
2013-10-16 23:11:00,58.2,20.6,29.99,NNE,13,1.0,2.0,23,0.00,,,0.00,VWS V14.01,2013-10-17 03:11:00,
2013-10-16 23:15:00,58.1,20.5,29.99,NNE,12,4.0,4.0,23,0.00,,,0.00,VWS V14.01,2013-10-17 03:15:00,
2013-10-16 23:16:00,57.9,20.4,29.99,NNE,12,0.0,4.0,23,0.00,,,0.00,VWS V14.01,2013-10-17 03:16:00,
2013-10-16 23:20:00,57.5,20.0,29.99,NNE,13,2.0,4.0,23,0.00,,,0.00,VWS V14.01,2013-10-17 03:20:00,
2013-10-16 23:21:00,57.5,20.0,29.99,NNE,16,3.0,3.0,23,0.00,,,0.00,VWS V14.01,2013-10-17 03:21:00,
2013-10-16 23:25:00,57.4,19.9,29.99,North,5,1.0,4.0,23,0.00,,,0.00,VWS V14.01,2013-10-17 03:25:00,
2013-10-16 23:26:00,57.3,20.8,30.00,North,5,2.0,3.0,24,0.00,,,0.00,VWS V14.01,2013-10-17 03:26:00,
2013-10-16 23:30:00,56.9,20.5,30.00,North,5,2.0,3.0,24,0.00,,,0.00,VWS V14.01,2013-10-17 03:30:00,
2013-10-16 23:31:00,56.7,20.3,30.00,North,360,2.0,4.0,24,0.00,,,0.00,VWS V14.01,2013-10-17 03:31:00,
2013-10-16 23:35:00,56.3,20.0,30.00,North,360,1.0,4.0,24,0.00,,,0.00,VWS V14.01,2013-10-17 03:35:00,
2013-10-16 23:36:00,56.2,19.9,30.00,North,360,2.0,3.0,24,0.00,,,0.00,VWS V14.01,2013-10-17 03:36:00,
2013-10-16 23:40:00,56.3,21.0,30.00,North,9,3.0,4.0,25,0.00,,,0.00,VWS V14.01,2013-10-17 03:40:00,
2013-10-16 23:41:00,56.3,21.0,30.00,North,9,3.0,3.0,25,0.00,,,0.00,VWS V14.01,2013-10-17 03:41:00,
2013-10-16 23:45:00,56.2,20.9,30.00,North,5,1.0,3.0,25,0.00,,,0.00,VWS V14.01,2013-10-17 03:45:00,
2013-10-16 23:46:00,56.1,20.8,30.00,North,5,0.0,2.0,25,0.00,,,0.00,VWS V14.01,2013-10-17 03:46:00,
2013-10-16 23:50:00,56.0,20.7,29.99,North,5,3.0,3.0,25,0.00,,,0.00,VWS V14.01,2013-10-17 03:50:00,
2013-10-16 23:51:00,56.0,20.7,30.00,North,5,0.0,3.0,25,0.00,,,0.00,VWS V14.01,2013-10-17 03:51:00,
2013-10-16 23:55:00,56.2,21.8,30.00,North,5,2.0,4.0,26,0.00,,,0.00,VWS V14.01,2013-10-17 03:55:00,
2013-10-16 23:56:00,56.4,21.0,30.00,North,5,0.0,2.0,25,0.00,,,0.00,VWS V14.01,2013-10-17 03:56:00,